Showing default

PNEO3, 48268

Orbit data source: Space-Track

PNEO3, 48268 is a payload satellite owned by ADS Intelligence (FR) in SSO that was launched on Thu, 29 Apr 2021 UTC via a VEGA launch vehicle from the French Guiana (FRGUI). Payload-class satellites include a variety of spacecraft equipped with specific instruments for various scientific and technological missions. These include communications satellites like Starlink; space stations such as the ISS; scientific satellites like the Hubble; Earth observation satellites from companies like Planet Labs, Umbra, and HawkEye 360; GPS; miniature CubeSats for education and research; and military/defense satellites.

Loading next visibility...
Identifier
48268, 2021-034A
Orbit
SSO
Country
Flag of FRFR
Related business
Manufacturer
Airbus/Toulouse
Mission
Operational Commercial Imaging
Bus & Motor
ASTROBUS-M COM., Unknown motor
Mass
920 kg wet, ~895 kg dry
Launch date (UTC)
2021-04-29 (5 years ago)
Launch vehicle
VEGA
Launch site
French Guiana (FRGUI)
Object type
Payload
Rocket body
Debris
Shape & HBR
Hex Cyl + 3 Pan, 4.6 m
Radar Cross Section
12.145 m², Large (>1 m²)

Expand to show TLE details & history
Last TLE update: 16 hours ago

TLE from 16 hours ago
0 PNEO3
1 48268U 21034A   25348.95704428  .00001851  00000-0  24174-3 0  9995
2 48268  97.8944  61.3658 0001313  93.0614 267.0749 14.81672474250377
Epoch: 2025-12-14T22:58Z
TLE epoch observation values (Epoch: 2025-12-14T22:58:08.625Z)
Latitude
-0.00005°
Longitude
-7.03264°
Altitude
627.121 km
Speed
7.545 km/s
True Right ascension
04h 05m 27s
True Declination
0° 00' 00"
Sunlit
Object was in full shadow at epoch
Visualization orbit readout
Latitude
Unknown
Longitude
Unknown
Altitude
Unknown
Speed
Unknown
Apparent Right ascension
Unknown
Apparent Declination
Unknown
Sunlit
N/A
Visualization observer readout
Local Sidereal Time
13:23:56
Azimuth
Unknown
Elevation
Unknown
Doppler factor
Unknown
Orbital elements
Apogee altitude
622.007 km
Perigee altitude
620.169 km
Semi-major axis
6,999.225 km
Eccentricity
0.00013
Inclination
97.8944°
RAAN
61.3658°
Arg. of periapsis
93.0614°
True anomaly
267.05987°
Mean anomaly
267.0749°
Eccentric anomaly
267.06739°
Mean motion
3.70654 °/min
Orbital period
97.13 mins
BSTAR
0.00024174
Loading maneuver chart data...
Computing Atmospheric mass density...
Loading historical data...
Loading historical data...
Loading historical data...
Loading historical data...
Loading historical data...
Loading historical data...
Loading historical data...

Documentation

Showing up to 5 results
|